www.pogodaiklimat.ru

Погода и климат >> Архив погоды >> Филиппины >> Касигуран


ПОГОДА в Касигуране

  • Прогноз погоды в Касигуране
  • Монитор погоды в Касигуране

АРХИВ ПОГОДЫ в Касигуране

Время (UTC), дата Ветер
(напр.,м/с)
 
Видим.   Явления Облачность Т
(С)
Тd
(С)
f
(%)
Тe
(С)
Тes
(С)
Комфортность P
(гПа)
Po
(гПа)
Тmin
(С)
Tmax
(С)
R
(мм)
R24
(мм)
S
(см)
03 9.06 ЮЗ 3 20 км 4/4 500 м
[Cu med, cong Ci fib]
+33.4 +26.7 68 +51 +61 опасность
перегрева
1009.9 1009.1
06 9.06 Ю 3 20 км 4/3 480 м
[Cu med, cong Ci fib]
+33.8 +26.9 67 +51 +61 опасность
перегрева
1008.0 1007.2
09 9.06 Ю 3 18 км мгла {туман} 4/3 450 м
[Cu med, cong Ci fib]
+32.4 +26.8 72 +50 +51 опасность
перегрева
1007.9 1007.1
12 9.06 штиль 0 18 км {туман} 3/1 450 м
[Cu med, cong Ac As Ci fib]
+29.2 +26.4 85 +45 +45 опасность
перегрева
1009.0 1008.2 +34.6
15 9.06 штиль 0 18 км 4/3 450 м
[Cu med, cong Ac As Ci fib]
+27.3 +25.7 91 +40 +40 очень
душно
1010.0 1009.2
18 9.06 штиль 0 17 км зарница 3/1 450 м
[Cb cap Ci fib]
+27.1 +25.7 92 +40 +40 очень
душно
1007.9 1007.1
21 9.06 штиль 0 18 км 9/3 450 м
[Cb cap Ac lent Cs]
+26.3 +25.0 93 +38 +38 очень
душно
1007.3 1006.5
00 10.06 штиль 0 20 км 6/1 540 м
[Cu med, cong Ac As Ci fib]
+29.4 +26.0 82 +44 +51 опасность
перегрева
1008.8 1008.0 +25.8
03 10.06 Ю 2 20 км 4/3 540 м
[Cu med, cong Ci fib]
+32.6 +27.8 76 +53 +67 опасность
перегрева
1008.8 1008.0
06 10.06 ЮЗ 3 20 км 4/3 540 м
[Cu med, cong Ci fib]
+32.8 +27.5 74 +52 +62 опасность
перегрева
1007.6 1006.8
09 10.06 ЮЗ 3 18 км 6/4 450 м
[Cu med, cong Ac As Ci fib]
+33.0 +28.0 75 +54 +54 опасность
перегрева
1007.0 1006.2
12 10.06 штиль 0 16 км гроза без осадков 10/3 450 м
[Cb cap Ac As]
+30.6 +27.3 83 +49 +49 опасность
перегрева
1008.8 1008.0 +34.2
15 10.06 штиль 0 16 км слаб. ливневой дождь {гроза} 10/4 420 м
[Sc Ac As]
+27.8 +25.7 88 +41 +41 опасность
перегрева
1009.8 1009.0 4
18 10.06 штиль 0 17 км {гроза, ливн. осадки} 6/3 450 м
[Cu med, cong Ac As]
+27.5 +25.5 89 +40 +40 очень
душно
1009.0 1008.2 5
21 10.06 штиль 0 16 км 9/1 450 м
[Cu med, cong Ac trans Cs]
+26.4 +24.5 89 +37 +37 очень
душно
1008.0 1007.2
00 11.06 штиль 0 18 км мгла {туман} 9/1 500 м
[Cu med, cong Ac lent Ci]
+29.6 +26.5 83 +45 +50 опасность
перегрева
1008.1 1007.3 +26.0 5
03 11.06 Ю 5 18 км мгла {туман} 9/3 480 м
[Cu med, cong Ci]
+31.8 +26.9 75 +49 +56 опасность
перегрева
1008.3 1007.5
06 11.06 Ю 3 16 км осадки на расстоянии {туман} 9/5 450 м
[Cb cap Ac As Ci fib]
+34.2 +27.6 69 +54 +58 опасность
перегрева
1006.3 1005.5
09 11.06 Ю 2 17 км мгла {туман} 10/4 450 м
[Cb cap Ac As Cs]
+32.0 +26.9 74 +49 +50 опасность
перегрева
1006.3 1005.5
12 11.06 штиль 0 16 км гроза без осадков {туман} 9/4 450 м
[Cb cap Ac As]
+30.0 +26.6 82 +46 +46 опасность
перегрева
1008.3 1007.5 +34.7
15 11.06 штиль 0 17 км зарница {гроза} 9/3 450 м
[Cb cap Ac trans Cs]
+28.8 +26.5 87 +44 +44 опасность
перегрева
1009.1 1008.3
18 11.06 штиль 0 17 км зарница {гроза} 9/3 450 м
[Cb cap Ac As Cs]
+27.0 +25.3 90 +39 +39 очень
душно
1007.8 1007.0
21 11.06 штиль 0 20 км 10/1 500 м
[Cu med, cong Ac lent Cs]
+26.1 +24.9 93 +37 +37 очень
душно
1007.6 1006.8
00 12.06 штиль 0 19 км мгла {туман} 9/1 480 м
[Cu med, cong Ac lent Cs]
+30.8 +25.8 75 +46 +51 опасность
перегрева
1008.8 1008.0 +26.0
03 12.06 Ю 3 20 км {туман} 9/3 500 м
[Cu med, cong Ac lent Ci]
+34.0 +27.7 70 +54 +61 опасность
перегрева
1008.3 1007.5
06 12.06 ЮЗ 5 19 км 9/4 450 м
[Cb cap Ac lent Cs]
+33.0 +27.1 71 +51 +54 опасность
перегрева
1006.6 1005.8
09 12.06 штиль 0 19 км 10/4 450 м
[Cb cap Ac As Cs]
+31.6 +26.7 75 +49 +49 опасность
перегрева
1006.6 1005.8
12 12.06 С 2 18 км 10/1 480 м
[Cu med, cong Ac As Cs]
+29.2 +27.4 90 +47 +47 опасность
перегрева
1008.3 1007.5 +35.3
15 12.06 СВ 2 17 км зарница 10/3 450 м
[Cb cap Ac As]
+28.2 +26.4 90 +43 +43 опасность
перегрева
1008.7 1007.9
18 12.06 штиль 0 17 км зарница 10/1 450 м
[Cb cap Ac As]
+27.5 +25.5 89 +40 +40 очень
душно
1008.1 1007.3
21 12.06 штиль 0 20 км 6/1 450 м
[Cb cap Ac trans Cs]
+26.2 +24.7 91 +37 +37 очень
душно
1006.8 1006.0
00 13.06 штиль 0 20 км 3/1 540 м
[Cu med, cong Ci fib]
+29.0 +26.4 86 +44 +53 опасность
перегрева
1007.8 1007.0 +26.2
03 13.06 ЮЗ 4 20 км 5/3 540 м
[Cu med, cong Ci fib]
+32.8 +27.7 75 +53 +62 опасность
перегрева
1007.8 1007.0
06 13.06 ЮЗ 6 20 км 5/3 540 м
[Cu med, cong Ci fib]
+33.8 +26.6 66 +51 +55 опасность
перегрева
1006.8 1006.0
09 13.06 ЮЗ 3 18 км 9/3 450 м
[Cu med, cong Ac trans Ci fib]
+31.0 +26.4 77 +47 +48 опасность
перегрева
1005.6 1004.8
12 13.06 ЮЗ 3 17 км 9/3 450 м
[Cu med, cong Ac trans Ci fib]
+29.4 +26.3 83 +45 +45 опасность
перегрева
1007.0 1006.2 +35.0
15 13.06 штиль 0 17 км 9/3 450 м
[Cu med, cong Ac trans Ci fib]
+27.4 +24.5 84 +39 +39 очень
душно
1007.8 1007.0
18 13.06 штиль 0 17 км 6/1 450 м
[Cu med, cong Ac As Cs]
+26.0 +23.8 88 +36 +36 очень
душно
1006.6 1005.8
21 13.06 штиль 0 18 км 4/3 450 м
[Cu med, cong Ci fib]
+25.2 +23.3 89 +34 +34 очень
душно
1005.8 1005.0
00 14.06 ЮЗ 2 18 км 8/1 450 м
[Cu med, cong Ci fib]
+30.8 +25.6 74 +45 +51 опасность
перегрева
1006.8 1006.0 +23.8
03 14.06 ЮЗ 5 18 км 8/1 450 м
[Cu med, cong Ci fib]
+33.6 +26.4 66 +50 +59 опасность
перегрева
1006.7 1005.9
06 14.06 ЮЗ 6 17 км 9/3 450 м
[Cb cap As op Ci fib]
+34.6 +28.6 71 +57 +60 опасность
перегрева
1005.3 1004.5
09 14.06 ЮЗ 6 15 км 9/3 450 м
[Cb cap As op Cs]
+32.8 +27.7 75 +53 +53 опасность
перегрева
1004.8 1004.0
12 14.06 ЮЗ 2 15 км зарница 8/3 450 м
[Cb cap Ac As Ci fib]
+29.8 +27.5 87 +48 +48 опасность
перегрева
1005.0 1004.2 +35.0
15 14.06 ЮЗ 4 17 км 5/3 450 м
[Cu med, cong Ci fib]
+30.0 +26.4 81 +46 +46 опасность
перегрева
1007.6 1006.8
18 14.06 ЮЗ 2 16 км 9/3 450 м
[Cu med, cong Ci fib]
+29.2 +25.0 78 +42 +42 опасность
перегрева
1006.6 1005.8
21 14.06 штиль 0 16 км 9/3 450 м
[Cu med, cong Ci fib]
+28.0 +24.6 82 +40 +40 очень
душно
1005.8 1005.0
00 15.06 ЮЗ 5 20 км 9/1 540 м
[Cu med, cong Ac lent Cs]
+30.8 +25.9 75 +46 +48 опасность
перегрева
1006.7 1005.9 +25.0
03 15.06 ЮЗ 6 20 км 9/1 500 м
[Cu med, cong Ac lent Cs]
+32.6 +26.7 71 +50 +54 опасность
перегрева
1006.2 1005.4
06 15.06 ЮЗ 6 20 км 8/1 500 м
[Cu med, cong Ac trans Ci]
+33.2 +26.8 69 +51 +54 опасность
перегрева
1005.3 1004.5
09 15.06 Ю 4 19 км мгла {туман} 9/3 500 м
[Cu med, cong Ac trans Cs]
+32.2 +26.7 73 +50 +50 опасность
перегрева
1004.8 1004.0
12 15.06 В 4 18 км {туман} 9/1 480 м
[Cu med, cong Ac As Cs]
+29.0 +25.1 80 +42 +42 опасность
перегрева
1007.0 1006.2 +34.8
15 15.06 штиль 0 18 км 8/1 450 м
[Cu med, cong Ac As Cs]
+27.7 +25.5 88 +41 +41 опасность
перегрева
1007.6 1006.8
18 15.06 С 1 20 км 6/1 450 м
[Cu med, cong Ac lent Ci fib]
+26.3 +25.1 93 +38 +38 очень
душно
1006.7 1005.9
21 15.06 штиль 0 19 км 6/3 450 м
[Cu med, cong Ci fib]
+25.9 +24.7 93 +37 +37 очень
душно
1006.1 1005.3

 

Местоположение метеостанции Касигуран (Филиппины): широта 16.28 долгота 122.11 высота над уровнем моря 4 м.

В архиве по умолчанию представлена погода в Касигуране за последнюю неделю. Архивные данные за месяц целиком и за предыдущие месяцы, начиная с января 2011 года, Вы можете получить, выбрав интересующий диапазон дат из раскрывающегося списка и нажав кнопку "Ввод!".


*Определитесь, кто Вы:
робот инопланетянин человек

Внимание! Время в таблицах - всемирное. Для получения местного времени необходимо прибавить поправку, которая равна 8 ч.

Смотрите также архив погоды в соседних городах и на ближайших метеорологических станциях:

Погода в Балер Радар (Филиппины) (78 км)
Погода в Кабанатуане (Филиппины) (152 км)
Погода в Тугегарао (Филиппины) (154 км)
Погода в Багио (Филиппины) (162 км)
Погода в Инфанте (Филиппины) (177 км)
Погода в Дагупане (Филиппины) (192 км)
Погода на Базе ВВС Clark (Филиппины) (207 км)
Погода в Танае (Филиппины) (214 км)
Погода в Научном саду (Филиппины) (218 км)
Погода в Маниле (Филиппины) (225 км)

Пояснения к столбцам:

Ветер - указаны скорость ветра в м/с - средняя за 10 мин, порывы в срок и между сроками (в фигурных скобках) и направление, откуда дует ветер: С - северный, СВ - северо-восточный, В - восточный, ЮВ - юго-восточный, Ю - южный, ЮЗ - юго-западный, З - западный, СЗ - северо-западный.
Видимость - горизонтальная дальность видимости в метрах или километрах. При видимости от 1 до 10 км при отсутствии осадков обычно наблюдается дымка, при ухудшении видимости до 1 км и менее - туман. В сухую погоду видимость может ухудшаться дымом, пылью или мглою.
Явления - указаны атмосферные явления, наблюдавшиеся в срок или в последний час перед сроком; фигурными скобками обозначены явления, наблюдавшиеся между сроками (за 1-3 часа до срока); квадратными скобками обозначены град или гололедные отложения с указанием их диаметра в мм.
Облачность - указаны через наклонную черту общая и нижняя облачность в баллах и высота нижней границы облаков в метрах; квадратными скобками обозначены формы облаков: Ci - перистые, Cs - перисто-слоистые, Cc - перисто-кучевые, Ac - высококучевые, As - высокослоистые, Sc - слоисто-кучевые, Ns - слоисто-дождевые, Cu - кучевые, Cb - кучево-дождевые. Подробнее классификацию облаков см. в Атласе облаков (PDF).
T - Температура воздуха - температура, измеренная на высоте 2 м над землей.
Td - Температура точки росы - температура, при понижении до которой содержащийся в воздухе водяной пар достигнет насыщения.
f - Относительная влажность воздуха - влажноcть воздуха, измеренная на высоте 2 м над землей.
Te - Эффективная температура - температура, которую ощущает одетый по сезону человек в тени. Характеристика душности погоды. При расчете учитывается влияние влажности воздуха и скорости ветра на теплоощущения человека.
Tes - Эффективная температура на солнце - температура, которую ощущает человек, с поправкой на солнечный нагрев. Характеристика знойности погоды. Зависит от высоты солнца над горизонтом, облачности и скорости ветра. Ночью, в пасмурную погоду, а также при ветре 12 м/с и более поправка равна нулю.
P - Атмосферное давление - приведенное к уровню моря атмосферное давление.
Po - Атмосферное давление - измеренное на уровне метеостанции атмосферное давление.
Tmin - Минимальная температура - минимум температуры воздуха на высоте 2 м над землей.
Tmax - Максимальная температура - максимум температуры воздуха на высоте 2 м над землей.
R - Количество осадков - Количество выпавших осадков за период времени, мм. При наведении курсора мыши на число - период времени, за который выпало указанное количество осадков.
R24 - Количество осадков - Количество выпавших осадков за 24 часа, мм.
S - Снежный покров - Высота снежного покрова, см. При наведении курсора мыши на число - состояние снежного покрова и степень покрытия местности в баллах.